This is the latest recevied weather packets stored in our database for station/object NR0A-4. If no packets are shown the sender has not sent any weather packets the latest 10 day(s).
| Time | Temp. | Humidity | Pressure | Rain* | Wind** | Luminosity | Snow |
|---|---|---|---|---|---|---|---|
| 1787850904 | 26.67° C | 54% | 1021.3 hPa | 0 mm | - | 740 W/m² | - |
| 1787850604 | 26.67° C | 55% | 1021.4 hPa | 0 mm | - | 733 W/m² | - |
| 1787850304 | 26.67° C | 55% | 1021.4 hPa | 0 mm | - | 726 W/m² | - |
| 1787850005 | 26.11° C | 59% | 1021.4 hPa | 0 mm | - | 719 W/m² | - |
| 1787849704 | 26.11° C | 58% | 1021.5 hPa | 0 mm | - | 712 W/m² | - |
| 1787849404 | 26.11° C | 56% | 1021.4 hPa | 0 mm | - | 701 W/m² | - |
| 1787849104 | 26.11° C | 62% | 1021.5 hPa | 0 mm | - | 700 W/m² | - |
| 1787848804 | 26.11° C | 59% | 1021.4 hPa | 0 mm | - | 693 W/m² | - |
| 1787848504 | 26.11° C | 58% | 1021.4 hPa | 0 mm | - | 687 W/m² | - |
| 1787848205 | 25.56° C | 60% | 1021.3 hPa | 0 mm | - | 680 W/m² | - |
| 1787847904 | 25.56° C | 59% | 1021.4 hPa | 0 mm | - | 666 W/m² | - |
| 1787847604 | 25° C | 58% | 1021.4 hPa | 0 mm | - | 656 W/m² | - |
| 1787847304 | 25° C | 62% | 1021.4 hPa | 0 mm | - | 649 W/m² | - |
| 1787847004 | 25° C | 58% | 1021.4 hPa | 0 mm | - | 642 W/m² | - |
| 1787846704 | 25° C | 63% | 1021.4 hPa | 0 mm | - | 631 W/m² | - |
| 1787846404 | 24.44° C | 65% | 1021.4 hPa | 0 mm | - | 624 W/m² | - |
| 1787846105 | 24.44° C | 65% | 1021.4 hPa | 0 mm | - | 610 W/m² | - |
| 1787845805 | 23.89° C | 66% | 1021.4 hPa | 0 mm | - | 601 W/m² | - |
| 1787845504 | 23.89° C | 71% | 1021.4 hPa | 0 mm | - | 589 W/m² | - |
| 1787845204 | 23.33° C | 69% | 1021.4 hPa | 0 mm | - | 577 W/m² | - |
| 1787844911 | 22.78° C | 67% | 1021.4 hPa | 0 mm | - | 568 W/m² | - |
| 1787844604 | 22.78° C | 67% | 1021.3 hPa | 0 mm | - | 555 W/m² | - |
| 1787844304 | 22.78° C | 71% | 1021.3 hPa | 0 mm | - | 538 W/m² | - |
| 1787844004 | 22.78° C | 71% | 1021.3 hPa | 0 mm | - | 526 W/m² | - |
| 1787843704 | 22.22° C | 73% | 1021.1 hPa | 0 mm | - | 520 W/m² | - |
* Rain latest hour (hover to see other rain measurements)
** Current wind speed in m/s (hover to see current wind gust speed)